TimeEDT,TemperatureF,Dew PointF,Humidity,Sea Level PressureIn,VisibilityMPH,Wind Direction,Wind SpeedMPH,Gust SpeedMPH,PrecipitationIn,Events,Conditions,WindDirDegrees,DateUTC
12:35 AM,68.5,65.3,89,30.09,10.0,Calm,Calm,-,N/A,,Clear,0,2013-10-04 04:35:00
12:55 AM,67.5,64.2,89,30.09,10.0,Calm,Calm,-,N/A,,Clear,0,2013-10-04 04:55:00
1:15 AM,69.1,65.7,89,30.09,10.0,South,4.6,-,N/A,,Scattered Clouds,170,2013-10-04 05:15:00
1:35 AM,71.1,64.9,81,30.09,10.0,South,4.6,-,N/A,,Scattered Clouds,170,2013-10-04 05:35:00
1:55 AM,70.9,64.4,80,30.09,10.0,SSE,4.6,-,N/A,,Clear,150,2013-10-04 05:55:00
2:15 AM,69.8,63.5,80,30.09,10.0,ESE,3.5,-,N/A,,Clear,120,2013-10-04 06:15:00
2:35 AM,69.4,63.7,82,30.09,10.0,ESE,4.6,-,N/A,,Clear,110,2013-10-04 06:35:00
2:55 AM,69.4,63.9,82,30.09,10.0,ESE,3.5,-,N/A,,Scattered Clouds,120,2013-10-04 06:55:00
3:15 AM,69.8,63.5,80,30.08,10.0,Calm,Calm,-,N/A,,Mostly Cloudy,0,2013-10-04 07:15:00
3:35 AM,70.0,63.3,79,30.08,10.0,Calm,Calm,-,N/A,,Mostly Cloudy,0,2013-10-04 07:35:00
3:55 AM,69.6,62.8,79,30.08,10.0,Calm,Calm,-,N/A,,Mostly Cloudy,0,2013-10-04 07:55:00
4:15 AM,69.6,63.7,81,30.08,10.0,Calm,Calm,-,N/A,,Mostly Cloudy,0,2013-10-04 08:15:00
4:35 AM,69.8,63.1,79,30.08,10.0,Calm,Calm,-,N/A,,Scattered Clouds,0,2013-10-04 08:35:00
4:55 AM,69.1,63.0,81,30.08,10.0,Calm,Calm,-,N/A,,Scattered Clouds,0,2013-10-04 08:55:00
5:15 AM,68.9,63.1,82,30.09,10.0,SSW,3.5,-,N/A,,Scattered Clouds,210,2013-10-04 09:15:00
5:35 AM,69.1,63.1,81,30.09,10.0,SSW,3.5,-,N/A,,Scattered Clouds,210,2013-10-04 09:35:00
5:55 AM,69.6,63.0,79,30.09,10.0,SW,4.6,-,N/A,,Mostly Cloudy,220,2013-10-04 09:55:00
6:15 AM,69.3,62.8,80,30.09,10.0,SSW,3.5,-,N/A,,Scattered Clouds,210,2013-10-04 10:15:00
6:35 AM,68.9,62.8,81,30.09,10.0,SSW,3.5,-,N/A,,Clear,210,2013-10-04 10:35:00
6:55 AM,68.5,62.6,81,30.10,10.0,SSW,3.5,-,N/A,,Clear,210,2013-10-04 10:55:00
7:15 AM,68.2,62.8,83,30.10,10.0,SSW,4.6,-,N/A,,Clear,210,2013-10-04 11:15:00
7:35 AM,68.4,63.0,83,30.10,10.0,SSW,4.6,-,N/A,,Clear,210,2013-10-04 11:35:00
7:55 AM,69.1,63.1,81,30.11,10.0,SW,3.5,-,N/A,,Clear,220,2013-10-04 11:55:00
8:35 AM,70.7,63.5,78,30.11,10.0,SSW,5.8,-,N/A,,Clear,200,2013-10-04 12:35:00
8:55 AM,71.4,63.5,76,30.11,10.0,SSW,4.6,-,N/A,,Clear,210,2013-10-04 12:55:00
9:15 AM,72.9,62.6,70,30.11,10.0,SSW,4.6,-,N/A,,Clear,210,2013-10-04 13:15:00
9:35 AM,74.3,62.8,67,30.12,10.0,SW,3.5,-,N/A,,Clear,230,2013-10-04 13:35:00
9:55 AM,75.4,63.0,65,30.12,10.0,SW,3.5,-,N/A,,Clear,220,2013-10-04 13:55:00
10:15 AM,76.8,63.1,63,30.12,10.0,Calm,Calm,-,N/A,,Clear,0,2013-10-04 14:15:00
10:35 AM,78.1,63.3,60,30.12,10.0,WSW,4.6,-,N/A,,Scattered Clouds,250,2013-10-04 14:35:00
10:55 AM,79.7,63.1,57,30.11,10.0,SW,3.5,-,N/A,,Scattered Clouds,220,2013-10-04 14:55:00
11:15 AM,80.4,62.8,55,30.11,10.0,WNW,4.6,-,N/A,,Clear,290,2013-10-04 15:15:00
11:35 AM,81.5,62.8,53,30.11,10.0,WSW,3.5,-,N/A,,Clear,240,2013-10-04 15:35:00
11:55 AM,82.0,62.2,51,30.11,10.0,SW,3.5,-,N/A,,Clear,230,2013-10-04 15:55:00
12:15 PM,83.3,62.2,49,30.10,10.0,Calm,Calm,-,N/A,,Clear,0,2013-10-04 16:15:00
12:35 PM,84.2,61.9,47,30.10,10.0,Calm,Calm,-,N/A,,Clear,0,2013-10-04 16:35:00
12:55 PM,85.3,61.5,45,30.09,10.0,West,4.6,-,N/A,,Clear,260,2013-10-04 16:55:00
1:15 PM,85.8,61.9,44,30.08,10.0,SSW,4.6,-,N/A,,Clear,210,2013-10-04 17:15:00
1:35 PM,86.5,61.3,43,30.07,10.0,WSW,3.5,-,N/A,,Clear,240,2013-10-04 17:35:00
1:55 PM,87.1,60.8,41,30.06,10.0,WSW,4.6,-,N/A,,Clear,250,2013-10-04 17:55:00
2:15 PM,87.4,60.6,40,30.06,10.0,WSW,4.6,-,N/A,,Clear,250,2013-10-04 18:15:00
2:35 PM,87.8,60.1,39,30.06,10.0,West,3.5,-,N/A,,Clear,280,2013-10-04 18:35:00
2:55 PM,87.4,60.1,40,30.05,10.0,West,5.8,-,N/A,,Clear,270,2013-10-04 18:55:00
3:15 PM,86.4,59.9,41,30.05,10.0,WSW,3.5,-,N/A,,Clear,250,2013-10-04 19:15:00
3:35 PM,87.8,59.7,39,30.05,10.0,West,3.5,-,N/A,,Clear,260,2013-10-04 19:35:00
3:55 PM,88.3,57.4,35,30.05,10.0,WSW,4.6,-,N/A,,Clear,240,2013-10-04 19:55:00
4:15 PM,88.2,57.9,36,30.04,10.0,SW,4.6,-,N/A,,Clear,220,2013-10-04 20:15:00
4:35 PM,88.2,56.8,34,30.04,10.0,WSW,4.6,-,N/A,,Clear,250,2013-10-04 20:35:00
4:55 PM,88.0,57.7,36,30.04,10.0,West,5.8,-,N/A,,Scattered Clouds,260,2013-10-04 20:55:00
5:15 PM,87.6,58.5,37,30.04,10.0,West,4.6,-,N/A,,Clear,260,2013-10-04 21:15:00
5:35 PM,86.7,59.0,39,30.04,10.0,West,4.6,-,N/A,,Clear,260,2013-10-04 21:35:00
5:55 PM,85.3,61.9,45,30.04,10.0,SW,3.5,-,N/A,,Clear,230,2013-10-04 21:55:00
6:15 PM,83.1,63.5,51,30.05,10.0,Calm,Calm,-,N/A,,Clear,0,2013-10-04 22:15:00
6:35 PM,80.4,64.2,58,30.05,10.0,Calm,Calm,-,N/A,,Clear,0,2013-10-04 22:35:00
6:55 PM,77.4,64.6,65,30.05,10.0,Calm,Calm,-,N/A,,Clear,0,2013-10-04 22:55:00
7:15 PM,75.2,65.3,71,30.05,10.0,Calm,Calm,-,N/A,,Clear,0,2013-10-04 23:15:00
7:35 PM,74.3,65.8,75,30.05,10.0,Calm,Calm,-,N/A,,Clear,0,2013-10-04 23:35:00
7:55 PM,72.7,66.0,80,30.06,10.0,Calm,Calm,-,N/A,,Clear,0,2013-10-04 23:55:00
8:15 PM,71.6,66.0,82,30.06,10.0,Calm,Calm,-,N/A,,Clear,0,2013-10-05 00:15:00
8:35 PM,70.9,65.7,83,30.07,10.0,Calm,Calm,-,N/A,,Clear,0,2013-10-05 00:35:00
8:55 PM,69.8,65.3,86,30.07,7.0,Calm,Calm,-,N/A,,Clear,0,2013-10-05 00:55:00
9:15 PM,69.8,66.0,88,30.08,7.0,Calm,Calm,-,N/A,,Clear,0,2013-10-05 01:15:00
9:35 PM,69.3,65.5,88,30.08,10.0,Calm,Calm,-,N/A,,Clear,0,2013-10-05 01:35:00
9:55 PM,68.4,64.9,89,30.08,7.0,Calm,Calm,-,N/A,,Clear,0,2013-10-05 01:55:00
10:15 PM,68.2,64.6,88,30.09,7.0,Calm,Calm,-,N/A,,Clear,0,2013-10-05 02:15:00
10:35 PM,68.5,65.5,90,30.08,7.0,Calm,Calm,-,N/A,,Clear,0,2013-10-05 02:35:00
10:55 PM,68.4,65.3,90,30.09,7.0,Calm,Calm,-,N/A,,Clear,0,2013-10-05 02:55:00
11:15 PM,67.5,64.4,90,30.09,7.0,Calm,Calm,-,N/A,,Clear,0,2013-10-05 03:15:00
11:35 PM,67.1,64.0,90,30.09,5.0,Calm,Calm,-,N/A,,Clear,0,2013-10-05 03:35:00
11:55 PM,65.5,62.6,90,30.08,2.5,Calm,Calm,-,N/A,,Clear,0,2013-10-05 03:55:00